Romeoville, IL

8:23 PM CDT on May 25, 2017 (GMT -0500)
Lewis University

Weather History for KLOT - March, 2013

Change the Weather History Date:

Saturday, March 2, 2013

  Actual Average Record
Temperature  
Mean Temperature 25 °F 33 °F  
Max Temperature 31 °F 41 °F 59 °F (2008)
Min Temperature 18 °F 25 °F 1 °F (2014)
Degree Days  
Heating Degree Days 40 32  
Month to date heating degree days 78 64  
Since 1 July heating degree days 4532 4792  
Cooling Degree Days 0 0  
Month to date cooling degree days 0 0  
Year to date cooling degree days 0 0  
Moisture  
Dew Point 18 °F    
Average Humidity 74    
Maximum Humidity 84    
Minimum Humidity 60    
Precipitation  
Precipitation T in 0.08 in 0.83 in (2002)
Month to date precipitation T 0.17  
Year to date precipitation 5.82 3.88  
Snow  
Snow T in 0.30 in 7.10 in (2002)
Month to date snowfall T 0.5  
Since 1 July snowfall 13.0 27.9  
Snow Depth T in    
Sea Level Pressure  
Sea Level Pressure 30.16 in    
Wind  
Wind Speed 12 mph (NNW)    
Max Wind Speed 17 mph    
Max Gust Speed 22 mph    
Visibility 10 miles    
Events      
T = Trace of Precipitation, MM = Missing Value Source: NWS Daily Summary

Daily Weather History Graph

Daily Weather History Graph

Search for Another Location

Airport or City:

Trip Planner

Search our weather history database for the weather conditions in past years. The results will help you decide how hot, cold, wet, or windy it might be!

Date:

Astronomy

Mar. 02, 2013 Rise Set
Actual Time 6:25 AM CST 5:44 PM CST
Civil Twilight 5:57 AM CST 6:12 PM CST
Nautical Twilight 5:25 AM CST 6:44 PM CST
Astronomical Twilight 4:53 AM CST 7:16 PM CST
Moon 11:28 PM CST (3/2) 8:48 AM CST (3/2)
Length of Visible Light 12h 14m
Length of Day
11h 19m
Waning Gibbous, 74% of the Moon is Illuminated
Mar 2
Waning Gibbous
Mar 4
Last Quarter
Mar 11
New
Mar 19
First Quarter
Mar 27
Full

Hourly Weather History & Observations

Time (CST) Temp. Windchill Dew Point Humidity Pressure Visibility Wind Dir Wind Speed Gust Speed Precip Events Conditions
12:15 AM 26.2 °F 15.2 °F 20.5 °F 79% 30.16 in 10.0 mi North 12.7 mph 17.3 mph N/A   Overcast
12:35 AM 26.2 °F 15.2 °F 20.5 °F 79% 30.16 in 10.0 mi North 12.7 mph - N/A   Overcast
12:55 AM 26.2 °F 17.1 °F 20.3 °F 78% 30.16 in 10.0 mi North 9.2 mph - N/A   Overcast
1:15 AM 26.1 °F 15.0 °F 20.1 °F 78% 30.15 in 10.0 mi North 12.7 mph - N/A   Overcast
1:35 AM 26.1 °F 14.5 °F 20.1 °F 78% 30.15 in 10.0 mi North 13.8 mph - N/A   Overcast
1:55 AM 25.7 °F 15.1 °F 20.3 °F 80% 30.15 in 10.0 mi North 11.5 mph - N/A   Overcast
2:15 AM 25.7 °F 15.1 °F 20.3 °F 80% 30.14 in 10.0 mi North 11.5 mph - N/A   Overcast
2:35 AM 25.7 °F 14.6 °F 20.3 °F 80% 30.14 in 10.0 mi North 12.7 mph - N/A   Overcast
2:55 AM 25.7 °F 15.1 °F 20.8 °F 82% 30.14 in 10.0 mi North 11.5 mph - N/A   Overcast
3:15 AM 25.7 °F 15.1 °F 20.8 °F 82% 30.14 in 10.0 mi North 11.5 mph - N/A   Overcast
3:35 AM 25.7 °F 14.0 °F 21.0 °F 82% 30.14 in 10.0 mi North 13.8 mph - N/A   Overcast
3:55 AM 25.7 °F 15.1 °F 21.2 °F 83% 30.14 in 10.0 mi North 11.5 mph - N/A   Overcast
4:15 AM 25.7 °F 16.4 °F 21.2 °F 83% 30.14 in 10.0 mi North 9.2 mph - N/A   Overcast
4:35 AM 25.7 °F 16.4 °F 21.4 °F 84% 30.14 in 10.0 mi North 9.2 mph - N/A   Overcast
4:55 AM 25.7 °F 15.7 °F 21.0 °F 82% 30.14 in 10.0 mi North 10.4 mph - N/A   Overcast
5:15 AM 25.5 °F 16.2 °F 21.0 °F 83% 30.14 in 10.0 mi North 9.2 mph - N/A   Overcast
5:35 AM 25.2 °F 15.1 °F 20.8 °F 84% 30.15 in 10.0 mi North 10.4 mph - N/A   Overcast
5:55 AM 25.0 °F 16.3 °F 20.5 °F 83% 30.16 in 10.0 mi North 8.1 mph - N/A   Overcast
6:15 AM 24.8 °F 13.4 °F 20.3 °F 83% 30.16 in 10.0 mi North 12.7 mph - N/A   Overcast
6:35 AM 24.8 °F 14.0 °F 20.3 °F 83% 30.16 in 10.0 mi North 11.5 mph - N/A   Overcast
6:55 AM 24.6 °F 13.8 °F 19.9 °F 82% 30.16 in 10.0 mi North 11.5 mph - N/A   Overcast
7:15 AM 24.8 °F 14.6 °F 20.3 °F 83% 30.17 in 10.0 mi NNW 10.4 mph - N/A   Overcast
7:35 AM 24.8 °F 13.4 °F 19.9 °F 82% 30.17 in 10.0 mi NNW 12.7 mph - N/A   Overcast
7:55 AM 24.8 °F 13.4 °F 19.8 °F 81% 30.18 in 10.0 mi NNW 12.7 mph - N/A   Overcast
8:15 AM 25.2 °F 15.1 °F 19.6 °F 79% 30.18 in 10.0 mi NNW 10.4 mph - N/A   Overcast
8:35 AM 25.7 °F 15.1 °F 20.1 °F 79% 30.17 in 10.0 mi NNW 11.5 mph - N/A   Overcast
8:55 AM 25.7 °F 14.6 °F 19.4 °F 77% 30.17 in 10.0 mi NNW 12.7 mph 17.3 mph N/A   Overcast
9:15 AM 26.2 °F 15.2 °F 19.4 °F 75% 30.17 in 10.0 mi NNW 12.7 mph - N/A   Overcast
9:35 AM 26.6 °F 16.2 °F 19.2 °F 74% 30.17 in 10.0 mi NNW 11.5 mph - N/A   Overcast
9:55 AM 27.1 °F 15.9 °F 18.3 °F 69% 30.17 in 10.0 mi NNW 13.8 mph - N/A   Overcast
10:15 AM 27.5 °F 15.4 °F 18.5 °F 69% 30.17 in 10.0 mi NNW 16.1 mph - N/A   Overcast
10:35 AM 28.4 °F 16.6 °F 17.6 °F 64% 30.17 in 10.0 mi NNW 16.1 mph - N/A   Overcast
10:55 AM 28.0 °F 16.5 °F 17.6 °F 65% 30.17 in 10.0 mi NNW 15.0 mph - N/A   Overcast
11:15 AM 28.6 °F 17.7 °F 18.1 °F 65% 30.17 in 10.0 mi NNW 13.8 mph 19.6 mph N/A   Overcast
11:35 AM 28.4 °F 18.0 °F 18.0 °F 65% 30.17 in 10.0 mi NW 12.7 mph - N/A   Overcast
11:55 AM 28.9 °F 18.6 °F 18.3 °F 65% 30.16 in 10.0 mi NNW 12.7 mph - N/A   Overcast
12:15 PM 29.3 °F 18.2 °F 18.3 °F 64% 30.15 in 10.0 mi NNW 15.0 mph 18.4 mph N/A   Overcast
12:35 PM 30.0 °F 20.0 °F 18.1 °F 61% 30.14 in 10.0 mi NNW 12.7 mph - N/A   Overcast
12:55 PM 29.8 °F 19.8 °F 18.3 °F 62% 30.14 in 10.0 mi NW 12.7 mph 21.9 mph N/A   Mostly Cloudy
1:15 PM 30.4 °F 19.5 °F 18.0 °F 60% 30.14 in 10.0 mi NW 15.0 mph - N/A   Mostly Cloudy
1:35 PM 30.2 °F 20.2 °F 18.0 °F 60% 30.14 in 10.0 mi NNW 12.7 mph 16.1 mph N/A   Overcast
1:55 PM 29.7 °F 18.6 °F 19.8 °F 67% 30.13 in 10.0 mi NW 15.0 mph 21.9 mph N/A   Overcast
2:15 PM 29.3 °F 17.3 °F 18.9 °F 65% 30.13 in 10.0 mi NNW 17.3 mph 21.9 mph N/A   Overcast
2:35 PM 29.7 °F 20.1 °F 19.0 °F 65% 30.13 in 10.0 mi NW 11.5 mph - N/A   Mostly Cloudy
2:55 PM 29.7 °F 18.2 °F 19.0 °F 65% 30.13 in 10.0 mi NW 16.1 mph 20.7 mph N/A   Scattered Clouds
3:15 PM 29.1 °F 17.5 °F 19.0 °F 66% 30.14 in 10.0 mi NW 16.1 mph 20.7 mph N/A   Scattered Clouds
3:35 PM 28.4 °F 17.0 °F 18.1 °F 65% 30.14 in 10.0 mi NW 15.0 mph - N/A   Mostly Cloudy
3:55 PM 28.0 °F 17.0 °F 18.1 °F 66% 30.14 in 10.0 mi NW 13.8 mph 20.7 mph N/A   Scattered Clouds
4:15 PM 28.0 °F 18.1 °F 18.0 °F 66% 30.14 in 10.0 mi NW 11.5 mph - N/A   Clear
4:35 PM 27.5 °F 17.4 °F 18.0 °F 67% 30.15 in 10.0 mi NW 11.5 mph 19.6 mph N/A   Clear
4:55 PM 27.1 °F 16.9 °F 17.4 °F 67% 30.16 in 10.0 mi NW 11.5 mph 17.3 mph N/A   Clear
5:15 PM 26.6 °F 15.7 °F 16.5 °F 66% 30.16 in 10.0 mi NW 12.7 mph - N/A   Clear
5:35 PM 25.5 °F 14.9 °F 16.3 °F 68% 30.16 in 10.0 mi NNW 11.5 mph - N/A   Clear
5:55 PM 24.8 °F 16.1 °F 15.6 °F 68% 30.16 in 10.0 mi NW 8.1 mph - N/A   Clear
6:15 PM 24.4 °F 14.9 °F 15.4 °F 69% 30.17 in 10.0 mi NW 9.2 mph - N/A   Clear
6:35 PM 23.7 °F 14.0 °F 15.1 °F 70% 30.17 in 10.0 mi NW 9.2 mph - N/A   Clear
6:55 PM 22.8 °F 12.9 °F 14.7 °F 71% 30.17 in 10.0 mi NNW 9.2 mph - N/A   Clear
7:15 PM 22.1 °F 12.0 °F 14.4 °F 72% 30.17 in 10.0 mi NNW 9.2 mph - N/A   Clear
7:35 PM 21.7 °F 12.3 °F 14.4 °F 73% 30.17 in 10.0 mi NNW 8.1 mph - N/A   Clear
7:55 PM 21.2 °F 12.6 °F 14.0 °F 74% 30.17 in 10.0 mi NNW 6.9 mph - N/A   Clear
8:15 PM 21.6 °F 12.1 °F 13.6 °F 72% 30.17 in 10.0 mi North 8.1 mph - N/A   Clear
8:35 PM 21.2 °F 12.6 °F 14.0 °F 74% 30.18 in 10.0 mi North 6.9 mph - N/A   Clear
8:55 PM 20.8 °F 13.2 °F 13.6 °F 74% 30.18 in 10.0 mi North 5.8 mph - N/A   Clear
9:15 PM 19.6 °F 11.7 °F 13.1 °F 76% 30.18 in 10.0 mi North 5.8 mph - N/A   Clear
9:35 PM 19.4 °F 12.8 °F 14.0 °F 80% 30.17 in 10.0 mi NNE 4.6 mph - N/A   Clear
9:55 PM 19.4 °F 12.8 °F 12.9 °F 76% 30.18 in 10.0 mi North 4.6 mph - N/A   Clear
10:15 PM 19.2 °F 12.5 °F 13.1 °F 77% 30.18 in 10.0 mi NW 4.6 mph - N/A   Clear
10:35 PM 18.5 °F 9.3 °F 12.9 °F 79% 30.18 in 10.0 mi NNW 6.9 mph - N/A   Clear
10:55 PM 18.5 °F 9.3 °F 12.7 °F 78% 30.18 in 10.0 mi NNW 6.9 mph - N/A   Clear
11:15 PM 18.1 °F 8.9 °F 12.2 °F 78% 30.17 in 10.0 mi NNW 6.9 mph - N/A   Clear
11:35 PM 17.2 °F 8.9 °F 11.8 °F 79% 30.16 in 10.0 mi NNW 5.8 mph - N/A   Clear
11:55 PM 16.7 °F 9.6 °F 12.0 °F 82% 30.16 in 10.0 mi NW 4.6 mph - N/A   Clear